Location: Arthurs Seat
(13.1500°N, 59.6000°W)
Time: 17:29:45
(UTC+00:00)

Cosmos 1417 Rocket - Pass Details

Date: 25 August 2019
Orbit: 953 x 998 km, 83.0° (Epoch: 15 October)

Event Time Altitude Azimuth Distance (km) Brightness Sun altitude
Rises 23:20:46 0° 179° (S) 3,647 7.3 -16.7°
Reaches altitude 10° 23:23:17 10° 177° (S) 2,695 6.6 -17.3°
Maximum altitude 23:29:26 73° 93° (E) 998 4.3 -18.7°
Drops below altitude 10° 23:35:31 10° 9° (N) 2,676 6.9 -20.1°
Sets 23:38:00 0° 8° (N) 3,620 7.6 -20.7°
